Time,TemperatureF,DewpointF,PressureIn,WindDirection,WindDirectionDegrees,WindSpeedMPH,WindSpeedGustMPH,Humidity,HourlyPrecipIn,Conditions,Clouds,dailyrainin,SoftwareType,DateUTC
2013-02-27 00:00:00,41.5,36.5,29.68,ENE,71,8.0,17.0,82,0.00,RA,,0.00,WeatherDisplay:10.37,2013-02-27 05:00:00,
2013-02-27 00:05:00,41.7,36.9,29.67,ENE,68,11.5,11.5,83,0.20,RA,,0.02,WeatherDisplay:10.37,2013-02-27 05:05:00,
2013-02-27 00:10:00,41.7,37.2,29.68,NE,45,17.3,17.3,84,0.22,RA,,0.05,WeatherDisplay:10.37,2013-02-27 05:10:00,
2013-02-27 00:15:00,41.7,37.5,29.68,NE,45,16.1,16.1,85,0.24,RA,,0.08,WeatherDisplay:10.37,2013-02-27 05:15:00,
2013-02-27 00:20:00,41.7,37.5,29.68,East,90,16.1,16.1,85,0.27,RA,,0.11,WeatherDisplay:10.37,2013-02-27 05:20:00,
2013-02-27 00:25:00,41.9,38.0,29.68,East,90,8.1,8.1,86,0.27,RA,,0.12,WeatherDisplay:10.37,2013-02-27 05:25:00,
2013-02-27 00:30:00,42.1,38.5,29.68,SE,135,11.5,11.5,87,0.27,RA,,0.14,WeatherDisplay:10.37,2013-02-27 05:30:00,
2013-02-27 00:35:00,42.1,38.5,29.67,NE,45,12.7,12.7,87,0.27,RA,,0.15,WeatherDisplay:10.37,2013-02-27 05:35:00,
2013-02-27 00:40:00,42.3,39.0,29.65,East,90,19.0,19.0,88,0.26,RA,,0.17,WeatherDisplay:10.37,2013-02-27 05:40:00,
2013-02-27 00:45:00,42.4,39.4,29.66,NE,45,17.3,17.3,89,0.25,RA,,0.18,WeatherDisplay:10.37,2013-02-27 05:45:00,
2013-02-27 00:50:00,42.4,39.4,29.65,East,90,10.4,10.7,89,0.24,RA,,0.19,WeatherDisplay:10.37,2013-02-27 05:50:00,
2013-02-27 00:55:00,42.4,39.7,29.65,NE,45,10.4,10.4,90,0.20,RA,,0.19,WeatherDisplay:10.37,2013-02-27 05:55:00,
2013-02-27 01:00:00,42.4,39.7,29.65,NE,45,11.5,11.5,90,0.21,RA,,0.21,WeatherDisplay:10.37,2013-02-27 06:00:00,
2013-02-27 01:05:00,42.4,39.7,29.64,South,180,15.0,15.0,90,0.20,RA,,0.22,WeatherDisplay:10.37,2013-02-27 06:05:00,
2013-02-27 01:10:00,42.4,40.0,29.64,North,0,12.7,12.7,91,0.19,RA,,0.24,WeatherDisplay:10.37,2013-02-27 06:10:00,
2013-02-27 01:15:00,42.4,40.0,29.64,NE,45,12.7,12.7,91,0.17,RA,,0.24,WeatherDisplay:10.37,2013-02-27 06:15:00,
2013-02-27 01:20:00,42.6,40.2,29.64,SE,135,10.4,10.4,91,0.14,RA,,0.25,WeatherDisplay:10.37,2013-02-27 06:20:00,
2013-02-27 01:25:00,42.8,40.4,29.63,East,90,16.1,16.1,91,0.14,RA,,0.26,WeatherDisplay:10.37,2013-02-27 06:25:00,
2013-02-27 01:30:00,42.8,40.6,29.63,NE,45,8.1,8.1,92,0.13,RA,,0.27,WeatherDisplay:10.37,2013-02-27 06:30:00,
2013-02-27 01:35:00,42.8,40.6,29.62,North,0,13.8,13.8,92,0.13,RA,,0.28,WeatherDisplay:10.37,2013-02-27 06:35:00,
2013-02-27 01:40:00,42.8,40.6,29.62,WNW,292,13.8,13.8,92,0.12,RA,,0.28,WeatherDisplay:10.37,2013-02-27 06:40:00,
2013-02-27 01:45:00,42.8,40.6,29.61,NE,45,12.7,12.7,92,0.12,RA,,0.30,WeatherDisplay:10.37,2013-02-27 06:45:00,
2013-02-27 01:50:00,42.8,40.9,29.60,East,90,13.8,13.8,93,0.11,RA,,0.31,WeatherDisplay:10.37,2013-02-27 06:50:00,
2013-02-27 01:55:00,43.0,41.1,29.59,SE,135,12.7,12.7,93,0.12,RA,,0.31,WeatherDisplay:10.37,2013-02-27 06:55:00,
2013-02-27 02:00:00,43.0,41.1,29.58,NE,45,12.7,12.7,93,0.09,RA,,0.31,WeatherDisplay:10.37,2013-02-27 07:00:00,
2013-02-27 02:05:00,43.0,41.1,29.57,SE,135,15.0,15.0,93,0.09,RA,,0.32,WeatherDisplay:10.37,2013-02-27 07:05:00,
2013-02-27 02:10:00,43.0,41.1,29.56,NE,45,12.7,12.7,93,0.08,RA,,0.32,WeatherDisplay:10.37,2013-02-27 07:10:00,
2013-02-27 02:15:00,43.0,41.1,29.55,SSE,158,10.4,10.4,93,0.08,,,0.32,WeatherDisplay:10.37,2013-02-27 07:15:00,
2013-02-27 02:20:00,43.0,41.4,29.55,SW,225,15.0,15.0,94,0.07,CLR,,0.32,WeatherDisplay:10.37,2013-02-27 07:20:00,
2013-02-27 02:25:00,43.0,41.4,29.55,East,90,11.5,11.5,94,0.06,CLR,,0.32,WeatherDisplay:10.37,2013-02-27 07:25:00,
2013-02-27 02:30:00,43.0,41.4,29.54,East,90,15.0,15.0,94,0.05,CLR,,0.32,WeatherDisplay:10.37,2013-02-27 07:30:00,
2013-02-27 02:35:00,43.2,41.6,29.54,North,0,13.8,13.8,94,0.05,RA,,0.33,WeatherDisplay:10.37,2013-02-27 07:35:00,
2013-02-27 02:40:00,43.3,41.7,29.53,NE,45,16.1,16.1,94,0.05,RA,,0.33,WeatherDisplay:10.37,2013-02-27 07:40:00,
2013-02-27 02:46:00,43.3,42.0,29.52,SE,135,13.8,13.8,95,0.04,,,0.33,WeatherDisplay:10.37,2013-02-27 07:46:00,
2013-02-27 02:51:00,43.5,42.2,29.52,East,90,20.7,20.7,95,0.04,CLR,,0.33,WeatherDisplay:10.37,2013-02-27 07:51:00,
2013-02-27 02:56:00,43.5,42.2,29.52,NE,45,12.7,12.7,95,0.02,CLR,,0.33,WeatherDisplay:10.37,2013-02-27 07:56:00,
2013-02-27 03:01:00,43.5,42.2,29.51,East,90,12.7,12.7,95,0.02,CLR,,0.33,WeatherDisplay:10.37,2013-02-27 08:01:00,
2013-02-27 03:06:00,43.7,42.4,29.51,SE,135,10.4,10.4,95,0.01,CLR,,0.33,WeatherDisplay:10.37,2013-02-27 08:06:00,
2013-02-27 03:11:00,43.9,42.5,29.50,East,90,17.3,17.3,95,0.02,RA,,0.34,WeatherDisplay:10.37,2013-02-27 08:11:00,
2013-02-27 03:16:00,43.9,42.8,29.50,East,90,12.7,12.7,96,0.02,RA,,0.34,WeatherDisplay:10.37,2013-02-27 08:16:00,
2013-02-27 03:21:00,44.1,43.0,29.49,East,90,15.0,15.0,96,0.02,,,0.34,WeatherDisplay:10.37,2013-02-27 08:21:00,
2013-02-27 03:26:00,44.2,43.2,29.49,NNW,338,16.1,16.1,96,0.02,CLR,,0.34,WeatherDisplay:10.37,2013-02-27 08:26:00,
2013-02-27 03:31:00,44.1,43.0,29.48,NE,45,17.3,17.3,96,0.04,RA,,0.35,WeatherDisplay:10.37,2013-02-27 08:31:00,
2013-02-27 03:36:00,44.1,43.0,29.47,North,0,17.3,17.3,96,0.02,RA,,0.35,WeatherDisplay:10.37,2013-02-27 08:36:00,
2013-02-27 03:41:00,44.1,43.0,29.47,SW,225,17.3,17.3,96,0.02,CLR,,0.35,WeatherDisplay:10.37,2013-02-27 08:41:00,
2013-02-27 03:46:00,44.1,43.0,29.47,East,90,10.4,10.4,96,0.04,RA,,0.37,WeatherDisplay:10.37,2013-02-27 08:46:00,
2013-02-27 03:51:00,44.2,43.2,29.46,SE,135,13.8,13.8,96,0.04,RA,,0.37,WeatherDisplay:10.37,2013-02-27 08:51:00,
2013-02-27 03:56:00,44.2,43.4,29.46,East,90,13.8,13.8,97,0.04,CLR,,0.37,WeatherDisplay:10.37,2013-02-27 08:56:00,
2013-02-27 04:01:00,44.4,43.6,29.45,SE,135,16.1,16.1,97,0.05,RA,,0.38,WeatherDisplay:10.37,2013-02-27 09:01:00,
2013-02-27 04:06:00,44.6,43.8,29.46,NE,45,17.3,17.3,97,0.05,RA,,0.38,WeatherDisplay:10.37,2013-02-27 09:06:00,
2013-02-27 04:11:00,44.4,43.6,29.46,East,90,12.7,12.7,97,0.04,CLR,,0.38,WeatherDisplay:10.37,2013-02-27 09:11:00,
2013-02-27 04:16:00,44.4,43.6,29.45,SE,135,13.8,13.8,97,0.04,CLR,,0.38,WeatherDisplay:10.37,2013-02-27 09:16:00,
2013-02-27 04:21:00,44.6,43.8,29.45,SE,135,11.5,11.5,97,0.04,CLR,,0.38,WeatherDisplay:10.37,2013-02-27 09:21:00,
2013-02-27 04:26:00,44.6,43.8,29.44,South,180,17.3,17.3,97,0.04,CLR,,0.38,WeatherDisplay:10.37,2013-02-27 09:26:00,
2013-02-27 04:31:00,44.6,43.8,29.45,NE,45,10.4,10.4,97,0.02,CLR,,0.38,WeatherDisplay:10.37,2013-02-27 09:31:00,
2013-02-27 04:36:00,44.6,43.8,29.44,NNE,22,19.6,19.6,97,0.02,CLR,,0.38,WeatherDisplay:10.37,2013-02-27 09:36:00,
2013-02-27 04:41:00,44.6,43.8,29.45,ENE,68,12.7,12.7,97,0.02,CLR,,0.38,WeatherDisplay:10.37,2013-02-27 09:41:00,
2013-02-27 04:46:00,44.8,44.3,29.44,NE,45,13.8,13.8,98,0.01,CLR,,0.38,WeatherDisplay:10.37,2013-02-27 09:46:00,
2013-02-27 04:51:00,45.0,44.4,29.44,East,90,10.4,10.4,98,0.01,CLR,,0.38,WeatherDisplay:10.37,2013-02-27 09:51:00,
2013-02-27 04:56:00,45.0,44.4,29.44,East,90,10.4,10.4,98,0.02,RA,,0.39,WeatherDisplay:10.37,2013-02-27 09:56:00,
2013-02-27 05:01:00,45.0,44.4,29.43,SE,135,9.2,9.2,98,0.01,RA,,0.39,WeatherDisplay:10.37,2013-02-27 10:01:00,
2013-02-27 05:06:00,44.8,44.3,29.42,SE,135,12.7,12.7,98,0.01,CLR,,0.39,WeatherDisplay:10.37,2013-02-27 10:06:00,
2013-02-27 05:11:00,44.6,44.1,29.42,East,90,10.4,10.4,98,0.01,CLR,,0.39,WeatherDisplay:10.37,2013-02-27 10:11:00,
2013-02-27 05:16:00,44.6,44.1,29.42,NE,45,8.1,8.1,98,0.02,RA,,0.40,WeatherDisplay:10.37,2013-02-27 10:16:00,
2013-02-27 05:21:00,44.8,44.3,29.42,East,90,12.7,12.7,98,0.02,RA,,0.40,WeatherDisplay:10.37,2013-02-27 10:21:00,
2013-02-27 05:26:00,45.0,44.4,29.42,NE,45,15.0,15.0,98,0.04,RA,,0.41,WeatherDisplay:10.37,2013-02-27 10:26:00,
2013-02-27 05:31:00,45.1,44.9,29.41,ENE,68,9.2,9.2,99,0.04,RA,,0.41,WeatherDisplay:10.37,2013-02-27 10:31:00,
2013-02-27 05:36:00,45.3,45.1,29.41,North,0,8.1,8.1,99,0.04,CLR,,0.43,WeatherDisplay:10.37,2013-02-27 10:36:00,
2013-02-27 05:41:00,45.3,45.1,29.41,NE,45,13.8,13.8,99,0.05,RA,,0.43,WeatherDisplay:10.37,2013-02-27 10:41:00,
2013-02-27 05:46:00,45.3,45.1,29.41,East,90,8.1,8.1,99,0.06,RA,,0.44,WeatherDisplay:10.37,2013-02-27 10:46:00,
2013-02-27 05:51:00,45.5,45.2,29.41,East,90,8.1,8.1,99,0.06,RA,,0.44,WeatherDisplay:10.37,2013-02-27 10:51:00,
2013-02-27 05:57:00,45.5,45.2,29.41,NE,45,11.5,11.5,99,0.05,CLR,,0.44,WeatherDisplay:10.37,2013-02-27 10:57:00,
2013-02-27 06:02:00,45.3,45.1,29.42,North,0,5.8,5.8,99,0.06,RA,,0.45,WeatherDisplay:10.37,2013-02-27 11:02:00,
2013-02-27 06:07:00,45.3,45.1,29.41,NE,45,5.8,5.8,99,0.06,RA,,0.45,WeatherDisplay:10.37,2013-02-27 11:07:00,
2013-02-27 06:12:00,45.3,45.1,29.41,North,0,3.5,3.5,99,0.06,CLR,,0.45,WeatherDisplay:10.37,2013-02-27 11:12:00,
2013-02-27 06:17:00,45.7,45.4,29.41,East,90,8.1,8.1,99,0.05,CLR,,0.45,WeatherDisplay:10.37,2013-02-27 11:17:00,
2013-02-27 06:22:00,45.7,45.4,29.40,NE,45,5.8,5.8,99,0.04,CLR,,0.45,WeatherDisplay:10.37,2013-02-27 11:22:00,
2013-02-27 06:27:00,45.9,45.6,29.40,NE,45,9.2,9.2,99,0.04,CLR,,0.45,WeatherDisplay:10.37,2013-02-27 11:27:00,
2013-02-27 06:32:00,46.0,45.8,29.39,NW,315,5.8,5.8,99,0.04,CLR,,0.45,WeatherDisplay:10.37,2013-02-27 11:32:00,
2013-02-27 06:37:00,46.6,46.3,29.39,East,90,15.0,15.0,99,0.02,CLR,,0.45,WeatherDisplay:10.37,2013-02-27 11:37:00,
2013-02-27 06:42:00,46.9,46.7,29.39,SSE,158,3.5,3.5,99,0.01,CLR,,0.45,WeatherDisplay:10.37,2013-02-27 11:42:00,
2013-02-27 06:47:00,46.8,46.5,29.39,SSE,158,10.7,10.7,99,0.01,CLR,,0.45,WeatherDisplay:10.37,2013-02-27 11:47:00,
2013-02-27 06:52:00,46.8,46.5,29.38,SE,135,10.4,10.4,99,0.01,CLR,,0.45,WeatherDisplay:10.37,2013-02-27 11:52:00,
2013-02-27 06:57:00,46.8,46.5,29.37,NE,45,6.9,6.9,99,0.02,RA,,0.46,WeatherDisplay:10.37,2013-02-27 11:57:00,
2013-02-27 07:02:00,46.6,46.3,29.37,SW,225,9.2,9.2,99,0.01,RA,,0.46,WeatherDisplay:10.37,2013-02-27 12:02:00,
2013-02-27 07:07:00,46.4,46.1,29.37,East,90,12.7,12.7,99,0.01,CLR,,0.46,WeatherDisplay:10.37,2013-02-27 12:07:00,
2013-02-27 07:12:00,46.2,46.0,29.37,NE,45,11.5,11.5,99,0.01,CLR,,0.46,WeatherDisplay:10.37,2013-02-27 12:12:00,
2013-02-27 07:17:00,46.2,46.0,29.37,NE,45,11.5,11.5,99,0.01,CLR,,0.46,WeatherDisplay:10.37,2013-02-27 12:17:00,
2013-02-27 07:22:00,46.0,45.8,29.37,NE,45,11.5,11.5,99,0.01,CLR,,0.46,WeatherDisplay:10.37,2013-02-27 12:22:00,
2013-02-27 07:27:00,46.0,45.8,29.37,NE,45,8.1,8.1,99,0.01,CLR,,0.46,WeatherDisplay:10.37,2013-02-27 12:27:00,
2013-02-27 07:32:00,46.0,45.8,29.37,East,90,15.0,15.0,99,0.01,CLR,,0.46,WeatherDisplay:10.37,2013-02-27 12:32:00,
2013-02-27 07:37:00,46.2,46.0,29.37,SSE,158,11.5,11.5,99,0.01,CLR,,0.46,WeatherDisplay:10.37,2013-02-27 12:37:00,
2013-02-27 07:42:00,46.0,45.8,29.37,ENE,68,9.2,9.2,99,0.01,CLR,,0.46,WeatherDisplay:10.37,2013-02-27 12:42:00,
2013-02-27 07:47:00,46.0,45.8,29.37,NNE,22,8.1,8.1,99,0.01,CLR,,0.46,WeatherDisplay:10.37,2013-02-27 12:47:00,
2013-02-27 07:52:00,45.9,45.6,29.36,North,0,9.2,9.2,99,0.01,CLR,,0.46,WeatherDisplay:10.37,2013-02-27 12:52:00,
2013-02-27 07:57:00,45.9,45.6,29.36,NE,45,12.7,12.7,99,0.00,CLR,,0.46,WeatherDisplay:10.37,2013-02-27 12:57:00,
2013-02-27 08:03:00,45.9,45.6,29.36,North,0,10.4,10.4,99,0.00,CLR,,0.46,WeatherDisplay:10.37,2013-02-27 13:03:00,
2013-02-27 08:08:00,45.9,45.6,29.36,NE,45,11.5,11.5,99,0.00,CLR,,0.46,WeatherDisplay:10.37,2013-02-27 13:08:00,
2013-02-27 08:13:00,45.9,45.6,29.36,SE,135,5.8,5.8,99,0.00,CLR,,0.46,WeatherDisplay:10.37,2013-02-27 13:13:00,
2013-02-27 08:18:00,45.9,45.6,29.36,NE,45,8.1,8.1,99,0.00,CLR,,0.46,WeatherDisplay:10.37,2013-02-27 13:18:00,
2013-02-27 08:23:00,46.0,45.8,29.36,ENE,68,6.9,6.9,99,0.00,CLR,,0.46,WeatherDisplay:10.37,2013-02-27 13:23:00,
2013-02-27 08:28:00,46.2,46.0,29.35,SE,135,5.8,5.8,99,0.00,CLR,,0.46,WeatherDisplay:10.37,2013-02-27 13:28:00,
2013-02-27 08:33:00,46.4,46.1,29.36,East,90,4.6,4.6,99,0.00,CLR,,0.46,WeatherDisplay:10.37,2013-02-27 13:33:00,
2013-02-27 08:38:00,46.6,46.3,29.36,NE,45,8.1,8.1,99,0.00,CLR,,0.46,WeatherDisplay:10.37,2013-02-27 13:38:00,
2013-02-27 08:43:00,46.8,46.5,29.36,NE,45,6.9,6.9,99,0.00,CLR,,0.46,WeatherDisplay:10.37,2013-02-27 13:43:00,
2013-02-27 08:48:00,46.9,46.7,29.36,NE,45,3.5,3.5,99,0.00,CLR,,0.46,WeatherDisplay:10.37,2013-02-27 13:48:00,
2013-02-27 08:53:00,46.9,46.7,29.36,East,90,4.6,4.6,99,0.00,CLR,,0.46,WeatherDisplay:10.37,2013-02-27 13:53:00,
2013-02-27 08:58:00,46.9,46.7,29.36,NE,45,3.5,3.5,99,0.00,CLR,,0.46,WeatherDisplay:10.37,2013-02-27 13:58:00,
2013-02-27 09:03:00,46.9,46.7,29.37,East,90,3.5,0.0,99,0.00,CLR,,0.46,WeatherDisplay:10.37,2013-02-27 14:03:00,
2013-02-27 09:08:00,46.8,46.5,29.36,NE,45,3.5,3.5,99,0.00,CLR,,0.46,WeatherDisplay:10.37,2013-02-27 14:08:00,
2013-02-27 09:13:00,46.8,46.5,29.35,NE,45,3.5,3.5,99,0.00,CLR,,0.46,WeatherDisplay:10.37,2013-02-27 14:13:00,
2013-02-27 09:18:00,46.8,46.5,29.36,East,90,3.5,3.5,99,0.00,CLR,,0.46,WeatherDisplay:10.37,2013-02-27 14:18:00,
2013-02-27 09:23:00,46.8,46.5,29.36,East,90,3.5,0.0,99,0.00,CLR,,0.46,WeatherDisplay:10.37,2013-02-27 14:23:00,
2013-02-27 09:28:00,46.9,46.7,29.35,East,90,4.6,4.6,99,0.00,CLR,,0.46,WeatherDisplay:10.37,2013-02-27 14:28:00,
2013-02-27 09:33:00,47.1,46.9,29.36,NE,45,2.3,2.3,99,0.00,CLR,,0.46,WeatherDisplay:10.37,2013-02-27 14:33:00,
2013-02-27 09:38:00,47.3,47.0,29.36,SE,135,3.5,3.5,99,0.00,CLR,,0.46,WeatherDisplay:10.37,2013-02-27 14:38:00,
2013-02-27 09:43:00,48.0,47.8,29.36,NE,45,0.0,0.0,99,0.00,CLR,,0.46,WeatherDisplay:10.37,2013-02-27 14:43:00,
2013-02-27 09:48:00,48.7,48.5,29.36,SW,225,0.0,0.0,99,0.00,CLR,,0.46,WeatherDisplay:10.37,2013-02-27 14:48:00,
2013-02-27 09:53:00,49.5,49.2,29.36,South,180,0.0,0.0,99,0.00,CLR,,0.46,WeatherDisplay:10.37,2013-02-27 14:53:00,
2013-02-27 09:58:00,49.6,49.4,29.37,South,180,0.0,0.0,99,0.00,CLR,,0.46,WeatherDisplay:10.37,2013-02-27 14:58:00,
2013-02-27 10:03:00,50.2,49.9,29.36,NW,315,3.5,3.5,99,0.00,CLR,,0.46,WeatherDisplay:10.37,2013-02-27 15:03:00,
2013-02-27 10:08:00,50.2,49.9,29.35,SE,135,1.1,0.0,99,0.00,CLR,,0.46,WeatherDisplay:10.37,2013-02-27 15:08:00,
2013-02-27 10:13:00,50.7,50.4,29.36,SE,135,3.5,0.0,99,0.00,CLR,,0.46,WeatherDisplay:10.37,2013-02-27 15:13:00,
2013-02-27 10:18:00,51.3,51.0,29.36,SW,225,4.5,4.5,99,0.00,CLR,,0.46,WeatherDisplay:10.37,2013-02-27 15:18:00,
2013-02-27 10:23:00,52.0,51.7,29.35,SW,225,3.5,0.0,99,0.00,CLR,,0.46,WeatherDisplay:10.37,2013-02-27 15:23:00,
2013-02-27 10:28:00,52.2,51.9,29.35,SW,225,3.5,0.0,99,0.00,CLR,,0.46,WeatherDisplay:10.37,2013-02-27 15:28:00,
2013-02-27 10:33:00,52.3,52.1,29.35,SW,225,3.5,0.0,99,0.00,CLR,,0.46,WeatherDisplay:10.37,2013-02-27 15:33:00,
2013-02-27 10:38:00,53.1,52.8,29.35,SW,225,4.6,4.6,99,0.00,CLR,,0.46,WeatherDisplay:10.37,2013-02-27 15:38:00,
2013-02-27 10:43:00,53.6,53.3,29.35,SW,225,5.8,5.8,99,0.00,CLR,,0.46,WeatherDisplay:10.37,2013-02-27 15:43:00,
2013-02-27 10:48:00,54.3,54.0,29.35,WNW,292,3.5,0.0,99,0.00,CLR,,0.46,WeatherDisplay:10.37,2013-02-27 15:48:00,
2013-02-27 10:53:00,55.2,54.9,29.35,South,180,1.1,0.0,99,0.00,CLR,,0.46,WeatherDisplay:10.37,2013-02-27 15:53:00,
2013-02-27 10:58:00,54.7,54.4,29.35,SW,225,1.1,0.0,99,0.00,CLR,,0.46,WeatherDisplay:10.37,2013-02-27 15:58:00,
2013-02-27 11:03:00,54.5,54.2,29.35,South,180,3.5,3.5,99,0.00,CLR,,0.46,WeatherDisplay:10.37,2013-02-27 16:03:00,
2013-02-27 11:08:00,54.5,54.2,29.36,North,0,3.5,0.0,99,0.00,CLR,,0.46,WeatherDisplay:10.37,2013-02-27 16:08:00,
2013-02-27 11:13:00,54.3,54.0,29.36,South,180,3.5,0.0,99,0.00,CLR,,0.46,WeatherDisplay:10.37,2013-02-27 16:13:00,
2013-02-27 11:18:00,54.0,53.7,29.36,SW,225,0.0,0.7,99,0.00,CLR,,0.46,WeatherDisplay:10.37,2013-02-27 16:18:00,
2013-02-27 11:23:00,53.1,52.8,29.36,SSW,202,4.6,4.6,99,0.00,CLR,,0.46,WeatherDisplay:10.37,2013-02-27 16:23:00,
2013-02-27 11:28:00,52.5,52.2,29.36,SW,225,4.6,4.6,99,0.00,CLR,,0.46,WeatherDisplay:10.37,2013-02-27 16:28:00,
2013-02-27 11:33:00,53.1,52.2,29.36,South,180,3.5,3.5,97,0.00,CLR,,0.46,WeatherDisplay:10.37,2013-02-27 16:33:00,
2013-02-27 11:38:00,54.1,53.0,29.36,SW,225,5.8,5.8,96,0.00,CLR,,0.46,WeatherDisplay:10.37,2013-02-27 16:38:00,
2013-02-27 11:43:00,56.3,52.8,29.36,North,0,12.7,12.7,88,0.00,CLR,,0.46,WeatherDisplay:10.37,2013-02-27 16:43:00,
2013-02-27 11:48:00,57.4,47.3,29.35,SW,225,9.2,9.2,69,0.00,CLR,,0.46,WeatherDisplay:10.37,2013-02-27 16:48:00,
2013-02-27 11:53:00,58.6,45.7,29.35,NW,315,6.9,6.9,62,0.00,CLR,,0.46,WeatherDisplay:10.37,2013-02-27 16:53:00,
2013-02-27 11:58:00,59.4,42.7,29.35,SSW,202,9.2,9.2,54,0.00,CLR,,0.46,WeatherDisplay:10.37,2013-02-27 16:58:00,
2013-02-27 12:04:00,58.5,39.9,29.34,SW,225,13.8,13.8,50,0.00,CLR,,0.46,WeatherDisplay:10.37,2013-02-27 17:04:00,
2013-02-27 12:09:00,58.1,40.6,29.35,SW,225,8.1,8.1,52,0.00,CLR,,0.46,WeatherDisplay:10.37,2013-02-27 17:09:00,
2013-02-27 12:14:00,57.7,40.2,29.35,NW,315,17.3,17.3,52,0.00,CLR,,0.46,WeatherDisplay:10.37,2013-02-27 17:14:00,
2013-02-27 12:19:00,57.0,39.6,29.35,SW,225,12.7,12.7,52,0.00,CLR,,0.46,WeatherDisplay:10.37,2013-02-27 17:19:00,
2013-02-27 12:24:00,57.0,40.5,29.34,SW,225,11.5,11.5,54,0.00,CLR,,0.46,WeatherDisplay:10.37,2013-02-27 17:24:00,
2013-02-27 12:29:00,57.0,40.0,29.34,NW,315,11.5,11.5,53,0.00,CLR,,0.46,WeatherDisplay:10.37,2013-02-27 17:29:00,
2013-02-27 12:34:00,57.2,40.2,29.35,SW,225,9.2,9.2,53,0.00,CLR,,0.46,WeatherDisplay:10.37,2013-02-27 17:34:00,
2013-02-27 12:39:00,56.7,40.2,29.35,SW,225,9.2,9.2,54,0.00,CLR,,0.46,WeatherDisplay:10.37,2013-02-27 17:39:00,
2013-02-27 12:44:00,55.8,40.3,29.35,West,270,15.0,15.0,56,0.00,CLR,,0.46,WeatherDisplay:10.37,2013-02-27 17:44:00,
2013-02-27 12:49:00,54.7,39.7,29.36,SW,225,15.0,15.0,57,0.00,CLR,,0.46,WeatherDisplay:10.37,2013-02-27 17:49:00,
2013-02-27 12:54:00,54.0,39.9,29.35,South,180,15.0,15.0,59,0.00,CLR,,0.46,WeatherDisplay:10.37,2013-02-27 17:54:00,
2013-02-27 12:59:00,53.8,39.8,29.36,NW,315,10.7,10.7,59,0.00,CLR,,0.46,WeatherDisplay:10.37,2013-02-27 17:59:00,
2013-02-27 13:04:00,53.6,39.2,29.36,SW,225,19.6,19.6,58,0.00,CLR,,0.46,WeatherDisplay:10.37,2013-02-27 18:04:00,
2013-02-27 13:09:00,53.2,38.8,29.36,West,270,12.7,12.7,58,0.00,CLR,,0.46,WeatherDisplay:10.37,2013-02-27 18:09:00,
2013-02-27 13:14:00,53.1,38.7,29.36,SW,225,12.7,12.7,58,0.00,CLR,,0.46,WeatherDisplay:10.37,2013-02-27 18:14:00,
2013-02-27 13:19:00,53.1,38.2,29.36,WNW,292,12.7,12.7,57,0.00,CLR,,0.46,WeatherDisplay:10.37,2013-02-27 18:19:00,
2013-02-27 13:24:00,53.1,37.8,29.36,West,270,11.5,11.5,56,0.00,CLR,,0.46,WeatherDisplay:10.37,2013-02-27 18:24:00,
2013-02-27 13:29:00,52.7,37.0,29.36,SW,225,15.0,15.0,55,0.00,CLR,,0.46,WeatherDisplay:10.37,2013-02-27 18:29:00,
2013-02-27 13:34:00,52.5,37.3,29.36,SW,225,13.8,13.8,56,0.00,CLR,,0.46,WeatherDisplay:10.37,2013-02-27 18:34:00,
2013-02-27 13:39:00,52.5,36.8,29.36,SSW,202,17.3,17.3,55,0.00,CLR,,0.46,WeatherDisplay:10.37,2013-02-27 18:39:00,
2013-02-27 13:44:00,52.3,36.6,29.36,SW,225,10.4,10.4,55,0.00,CLR,,0.46,WeatherDisplay:10.37,2013-02-27 18:44:00,
2013-02-27 13:49:00,52.5,36.8,29.36,NE,45,12.7,12.7,55,0.00,CLR,,0.46,WeatherDisplay:10.37,2013-02-27 18:49:00,
2013-02-27 13:54:00,52.9,36.7,29.36,West,270,12.7,12.7,54,0.00,CLR,,0.46,WeatherDisplay:10.37,2013-02-27 18:54:00,
2013-02-27 13:59:00,54.5,38.2,29.36,SSW,202,6.9,6.9,54,0.00,CLR,,0.46,WeatherDisplay:10.37,2013-02-27 18:59:00,
2013-02-27 14:04:00,56.1,36.7,29.36,NW,315,8.1,8.1,48,0.00,CLR,,0.46,WeatherDisplay:10.37,2013-02-27 19:04:00,
2013-02-27 14:09:00,56.5,35.4,29.36,SW,225,8.1,8.1,45,0.00,CLR,,0.46,WeatherDisplay:10.37,2013-02-27 19:09:00,
2013-02-27 14:14:00,55.6,32.8,29.38,West,270,16.1,16.1,42,0.00,CLR,,0.46,WeatherDisplay:10.37,2013-02-27 19:14:00,
2013-02-27 14:19:00,56.5,33.0,29.37,NW,315,10.4,10.4,41,0.00,CLR,,0.46,WeatherDisplay:10.37,2013-02-27 19:19:00,
2013-02-27 14:24:00,55.4,30.8,29.38,SSW,202,16.1,16.1,39,0.00,CLR,,0.46,WeatherDisplay:10.37,2013-02-27 19:24:00,
2013-02-27 14:29:00,54.1,30.9,29.38,North,0,12.7,12.7,41,0.00,CLR,,0.46,WeatherDisplay:10.37,2013-02-27 19:29:00,
2013-02-27 14:34:00,54.9,31.6,29.38,NW,315,12.7,12.7,41,0.00,CLR,,0.46,WeatherDisplay:10.37,2013-02-27 19:34:00,
2013-02-27 14:39:00,55.4,30.8,29.38,SW,225,9.2,9.2,39,0.00,CLR,,0.46,WeatherDisplay:10.37,2013-02-27 19:39:00,
2013-02-27 14:44:00,56.1,30.8,29.38,West,270,8.1,8.1,38,0.00,CLR,,0.46,WeatherDisplay:10.37,2013-02-27 19:44:00,
2013-02-27 14:49:00,57.2,29.8,29.38,North,0,12.7,12.7,35,0.00,CLR,,0.46,WeatherDisplay:10.37,2013-02-27 19:49:00,
2013-02-27 14:54:00,57.4,28.5,29.38,West,270,9.2,9.2,33,0.00,CLR,,0.46,WeatherDisplay:10.37,2013-02-27 19:54:00,
2013-02-27 14:59:00,58.1,26.8,29.39,West,270,12.7,12.7,30,0.00,CLR,,0.46,WeatherDisplay:10.37,2013-02-27 19:59:00,
2013-02-27 15:04:00,57.7,26.5,29.39,West,270,13.8,13.8,30,0.00,CLR,,0.46,WeatherDisplay:10.37,2013-02-27 20:04:00,
2013-02-27 15:09:00,56.5,25.4,29.40,North,8,13.8,13.8,30,0.00,CLR,,0.46,WeatherDisplay:10.37,2013-02-27 20:09:00,
2013-02-27 15:14:00,55.2,25.8,29.40,WNW,292,12.7,12.7,32,0.00,CLR,,0.46,WeatherDisplay:10.37,2013-02-27 20:14:00,
2013-02-27 15:19:00,55.8,26.3,29.40,North,0,12.7,12.7,32,0.00,CLR,,0.46,WeatherDisplay:10.37,2013-02-27 20:19:00,
2013-02-27 15:24:00,57.0,24.2,29.41,West,270,12.7,12.7,28,0.00,CLR,,0.46,WeatherDisplay:10.37,2013-02-27 20:24:00,
2013-02-27 15:29:00,58.3,24.4,29.41,NW,315,11.5,11.5,27,0.00,CLR,,0.46,WeatherDisplay:10.37,2013-02-27 20:29:00,
2013-02-27 15:34:00,59.0,24.1,29.41,SW,225,8.1,8.1,26,0.00,CLR,,0.46,WeatherDisplay:10.37,2013-02-27 20:34:00,
2013-02-27 15:39:00,58.6,19.9,29.41,South,180,15.0,15.0,22,0.00,CLR,,0.46,WeatherDisplay:10.37,2013-02-27 20:39:00,
2013-02-27 15:44:00,57.9,21.3,29.41,SW,225,15.0,15.0,24,0.00,CLR,,0.46,WeatherDisplay:10.37,2013-02-27 20:44:00,
2013-02-27 15:49:00,58.1,20.4,29.42,NW,315,9.2,9.2,23,0.00,CLR,,0.46,WeatherDisplay:10.37,2013-02-27 20:49:00,
2013-02-27 15:54:00,58.5,19.7,29.42,NW,315,10.4,10.4,22,0.00,CLR,,0.46,WeatherDisplay:10.37,2013-02-27 20:54:00,
2013-02-27 15:59:00,57.2,18.6,29.42,WNW,292,10.4,10.4,22,0.00,CLR,,0.46,WeatherDisplay:10.37,2013-02-27 20:59:00,
2013-02-27 16:04:00,57.0,20.5,29.42,NE,45,8.1,8.1,24,0.00,CLR,,0.46,WeatherDisplay:10.37,2013-02-27 21:04:00,
2013-02-27 16:09:00,55.0,19.8,29.42,WSW,248,16.1,16.1,25,0.00,CLR,,0.46,WeatherDisplay:10.37,2013-02-27 21:09:00,
2013-02-27 16:14:00,53.6,20.4,29.42,West,270,15.0,15.0,27,0.00,CLR,,0.46,WeatherDisplay:10.37,2013-02-27 21:14:00,
2013-02-27 16:19:00,53.1,20.8,29.43,NW,315,11.5,11.5,28,0.00,CLR,,0.46,WeatherDisplay:10.37,2013-02-27 21:19:00,
2013-02-27 16:24:00,52.7,21.3,29.43,West,270,12.7,12.7,29,0.00,CLR,,0.46,WeatherDisplay:10.37,2013-02-27 21:24:00,
2013-02-27 16:29:00,52.5,21.1,29.43,South,180,12.7,12.7,29,0.00,CLR,,0.46,WeatherDisplay:10.37,2013-02-27 21:29:00,
2013-02-27 16:34:00,52.2,21.6,29.44,West,270,10.4,10.4,30,0.00,CLR,,0.46,WeatherDisplay:10.37,2013-02-27 21:34:00,
2013-02-27 16:40:00,52.0,19.8,29.44,SW,225,9.2,9.2,28,0.00,CLR,,0.46,WeatherDisplay:10.37,2013-02-27 21:40:00,
2013-02-27 16:45:00,51.4,18.5,29.44,South,180,18.4,18.4,27,0.00,CLR,,0.46,WeatherDisplay:10.37,2013-02-27 21:45:00,
2013-02-27 16:50:00,51.3,19.2,29.45,SW,225,10.4,10.4,28,0.00,CLR,,0.46,WeatherDisplay:10.37,2013-02-27 21:50:00,
2013-02-27 16:55:00,51.4,18.5,29.46,South,180,11.5,11.5,27,0.00,CLR,,0.46,WeatherDisplay:10.37,2013-02-27 21:55:00,
2013-02-27 17:00:00,51.3,18.4,29.46,West,270,12.7,12.7,27,0.00,CLR,,0.46,WeatherDisplay:10.37,2013-02-27 22:00:00,
2013-02-27 17:05:00,51.1,19.1,29.46,West,261,3.0,15.0,28,0.00,CLR,,0.46,WeatherDisplay:10.37,2013-02-27 22:05:00,
2013-02-27 17:10:00,50.9,18.9,29.46,West,273,3.0,8.0,28,0.00,CLR,,0.46,WeatherDisplay:10.37,2013-02-27 22:10:00,
2013-02-27 17:15:00,51.3,18.4,29.46,WSW,255,5.0,15.0,27,0.00,CLR,,0.46,WeatherDisplay:10.37,2013-02-27 22:15:00,
2013-02-27 17:20:00,50.7,18.8,29.46,SSW,202,5.8,5.8,28,0.00,CLR,,0.46,WeatherDisplay:10.37,2013-02-27 22:20:00,
2013-02-27 17:25:00,50.4,18.4,29.47,NW,315,12.7,12.7,28,0.00,CLR,,0.46,WeatherDisplay:10.37,2013-02-27 22:25:00,
2013-02-27 17:30:00,50.2,19.1,29.47,West,280,3.0,12.0,29,0.00,CLR,,0.46,WeatherDisplay:10.37,2013-02-27 22:30:00,
2013-02-27 17:35:00,49.8,19.6,29.47,West,270,5.0,9.0,30,0.00,CLR,,0.46,WeatherDisplay:10.37,2013-02-27 22:35:00,
2013-02-27 17:40:00,49.6,19.4,29.47,WSW,247,3.0,13.0,30,0.00,CLR,,0.46,WeatherDisplay:10.37,2013-02-27 22:40:00,
2013-02-27 17:45:00,49.5,20.0,29.47,West,270,5.8,6.0,31,0.00,CLR,,0.46,WeatherDisplay:10.37,2013-02-27 22:45:00,
2013-02-27 17:50:00,49.5,20.0,29.47,West,260,3.0,11.0,31,0.00,CLR,,0.46,WeatherDisplay:10.37,2013-02-27 22:50:00,
2013-02-27 17:55:00,49.5,20.8,29.48,SW,225,8.1,8.1,32,0.00,CLR,,0.46,WeatherDisplay:10.37,2013-02-27 22:55:00,
2013-02-27 18:00:00,49.5,20.8,29.48,WSW,255,2.0,7.0,32,0.00,CLR,,0.46,WeatherDisplay:10.37,2013-02-27 23:00:00,
2013-02-27 18:05:00,49.1,20.5,29.48,West,270,8.1,8.1,32,0.00,CLR,,0.46,WeatherDisplay:10.37,2013-02-27 23:05:00,
2013-02-27 18:10:00,48.9,21.0,29.48,SW,225,8.1,8.1,33,0.00,CLR,,0.46,WeatherDisplay:10.37,2013-02-27 23:10:00,
2013-02-27 18:15:00,48.7,20.9,29.49,West,270,5.8,5.8,33,0.00,CLR,,0.46,WeatherDisplay:10.37,2013-02-27 23:15:00,
2013-02-27 18:20:00,48.6,21.4,29.49,SW,225,5.8,5.8,34,0.00,CLR,,0.46,WeatherDisplay:10.37,2013-02-27 23:20:00,
2013-02-27 18:25:00,48.2,21.1,29.49,NW,315,4.6,4.6,34,0.00,CLR,,0.46,WeatherDisplay:10.37,2013-02-27 23:25:00,
2013-02-27 18:30:00,48.2,21.8,29.49,SW,225,3.5,3.5,35,0.00,CLR,,0.46,WeatherDisplay:10.37,2013-02-27 23:30:00,
2013-02-27 18:35:00,48.2,21.8,29.49,SW,225,3.5,3.5,35,0.00,CLR,,0.46,WeatherDisplay:10.37,2013-02-27 23:35:00,
2013-02-27 18:40:00,48.0,22.3,29.49,SW,225,5.8,5.8,36,0.00,CLR,,0.46,WeatherDisplay:10.37,2013-02-27 23:40:00,
2013-02-27 18:45:00,47.8,22.1,29.50,West,270,4.6,4.6,36,0.00,CLR,,0.46,WeatherDisplay:10.37,2013-02-27 23:45:00,
2013-02-27 18:50:00,47.8,22.8,29.50,SW,225,3.5,3.5,37,0.00,CLR,,0.46,WeatherDisplay:10.37,2013-02-27 23:50:00,
2013-02-27 18:55:00,47.8,22.8,29.50,SW,225,4.6,4.6,37,0.00,CLR,,0.46,WeatherDisplay:10.37,2013-02-27 23:55:00,
2013-02-27 19:00:00,47.8,22.8,29.49,SW,225,3.5,0.0,37,0.00,CLR,,0.46,WeatherDisplay:10.37,2013-02-28 00:00:00,
2013-02-27 19:05:00,47.7,22.6,29.50,SW,225,2.3,0.0,37,0.00,CLR,,0.46,WeatherDisplay:10.37,2013-02-28 00:05:00,
2013-02-27 19:10:00,47.5,23.1,29.50,SW,225,3.5,3.5,38,0.00,CLR,,0.46,WeatherDisplay:10.37,2013-02-28 00:10:00,
2013-02-27 19:15:00,47.5,23.1,29.50,SW,225,1.1,0.0,38,0.00,CLR,,0.46,WeatherDisplay:10.37,2013-02-28 00:15:00,
2013-02-27 19:20:00,47.3,22.9,29.50,SW,225,0.0,0.0,38,0.00,CLR,,0.46,WeatherDisplay:10.37,2013-02-28 00:20:00,
2013-02-27 19:25:00,47.1,23.4,29.50,South,180,1.1,0.0,39,0.00,CLR,,0.46,WeatherDisplay:10.37,2013-02-28 00:25:00,
2013-02-27 19:30:00,46.8,23.1,29.50,South,180,3.5,3.5,39,0.00,CLR,,0.46,WeatherDisplay:10.37,2013-02-28 00:30:00,
2013-02-27 19:35:00,46.6,22.9,29.50,West,270,0.0,0.0,39,0.00,CLR,,0.46,WeatherDisplay:10.37,2013-02-28 00:35:00,
2013-02-27 19:40:00,46.0,23.0,29.50,East,90,1.1,0.0,40,0.00,CLR,,0.46,WeatherDisplay:10.37,2013-02-28 00:40:00,
2013-02-27 19:45:00,45.7,22.7,29.50,East,90,0.0,0.0,40,0.00,CLR,,0.46,WeatherDisplay:10.37,2013-02-28 00:45:00,
2013-02-27 19:50:00,45.1,22.2,29.50,SSW,202,0.0,0.0,40,0.00,CLR,,0.46,WeatherDisplay:10.37,2013-02-28 00:50:00,
2013-02-27 19:55:00,44.4,22.2,29.50,South,180,0.0,0.0,41,0.00,CLR,,0.46,WeatherDisplay:10.37,2013-02-28 00:55:00,
2013-02-27 20:00:00,43.9,22.2,29.51,South,180,0.0,0.0,42,0.00,CLR,,0.46,WeatherDisplay:10.37,2013-02-28 01:00:00,
2013-02-27 20:05:00,43.2,21.6,29.51,South,180,0.0,0.0,42,0.00,CLR,,0.46,WeatherDisplay:10.37,2013-02-28 01:05:00,
2013-02-27 20:10:00,42.8,22.4,29.51,South,180,0.0,0.0,44,0.00,CLR,,0.46,WeatherDisplay:10.37,2013-02-28 01:10:00,
2013-02-27 20:15:00,42.4,22.0,29.51,South,180,0.0,0.0,44,0.00,CLR,,0.46,WeatherDisplay:10.37,2013-02-28 01:15:00,
2013-02-27 20:20:00,42.4,22.6,29.51,South,180,0.0,0.0,45,0.00,CLR,,0.46,WeatherDisplay:10.37,2013-02-28 01:20:00,
2013-02-27 20:25:00,42.3,22.9,29.51,South,180,0.0,0.0,46,0.00,CLR,,0.46,WeatherDisplay:10.37,2013-02-28 01:25:00,
2013-02-27 20:30:00,42.4,23.6,29.52,South,180,0.0,0.0,47,0.00,CLR,,0.46,WeatherDisplay:10.37,2013-02-28 01:30:00,
2013-02-27 20:35:00,42.6,24.3,29.51,South,180,0.0,0.0,48,0.00,CLR,,0.46,WeatherDisplay:10.37,2013-02-28 01:35:00,
2013-02-27 20:40:00,42.8,24.9,29.51,South,180,0.0,0.0,49,0.00,CLR,,0.46,WeatherDisplay:10.37,2013-02-28 01:40:00,
2013-02-27 20:45:00,43.0,25.1,29.52,South,180,0.0,0.0,49,0.00,CLR,,0.46,WeatherDisplay:10.37,2013-02-28 01:45:00,
2013-02-27 20:50:00,43.3,25.9,29.52,South,180,0.0,0.0,50,0.00,CLR,,0.46,WeatherDisplay:10.37,2013-02-28 01:50:00,
2013-02-27 20:55:00,43.5,26.1,29.51,South,180,0.0,0.0,50,0.00,CLR,,0.46,WeatherDisplay:10.37,2013-02-28 01:55:00,
2013-02-27 21:00:00,43.5,26.1,29.51,South,180,0.0,0.0,50,0.00,CLR,,0.46,WeatherDisplay:10.37,2013-02-28 02:00:00,
2013-02-27 21:05:00,43.7,26.3,29.51,South,180,0.0,0.0,50,0.00,CLR,,0.46,WeatherDisplay:10.37,2013-02-28 02:05:00,
2013-02-27 21:10:00,43.9,26.9,29.52,SW,225,1.1,0.0,51,0.00,CLR,,0.46,WeatherDisplay:10.37,2013-02-28 02:10:00,
2013-02-27 21:15:00,44.1,27.1,29.52,South,180,2.3,2.3,51,0.00,CLR,,0.46,WeatherDisplay:10.37,2013-02-28 02:15:00,
2013-02-27 21:20:00,44.4,27.4,29.52,South,180,0.0,0.0,51,0.00,CLR,,0.46,WeatherDisplay:10.37,2013-02-28 02:20:00,
2013-02-27 21:25:00,44.6,27.1,29.52,SW,225,0.0,0.0,50,0.00,CLR,,0.46,WeatherDisplay:10.37,2013-02-28 02:25:00,
2013-02-27 21:30:00,44.6,27.1,29.51,SW,225,3.5,0.0,50,0.00,CLR,,0.46,WeatherDisplay:10.37,2013-02-28 02:30:00,
2013-02-27 21:35:00,44.8,27.3,29.51,SW,225,0.0,0.0,50,0.00,CLR,,0.46,WeatherDisplay:10.37,2013-02-28 02:35:00,
2013-02-27 21:40:00,44.8,27.3,29.51,SW,225,0.0,0.0,50,0.00,CLR,,0.46,WeatherDisplay:10.37,2013-02-28 02:40:00,
2013-02-27 21:45:00,44.8,27.3,29.52,South,180,0.0,0.0,50,0.00,CLR,,0.46,WeatherDisplay:10.37,2013-02-28 02:45:00,
2013-02-27 21:50:00,44.8,27.3,29.51,SW,225,0.0,0.0,50,0.00,CLR,,0.46,WeatherDisplay:10.37,2013-02-28 02:50:00,
2013-02-27 21:55:00,44.8,27.3,29.51,SW,225,0.0,0.0,50,0.00,CLR,,0.46,WeatherDisplay:10.37,2013-02-28 02:55:00,
2013-02-27 22:00:00,45.0,26.9,29.51,West,270,2.3,0.0,49,0.00,CLR,,0.46,WeatherDisplay:10.37,2013-02-28 03:00:00,
2013-02-27 22:05:00,45.1,27.1,29.51,South,180,0.0,0.0,49,0.00,CLR,,0.46,WeatherDisplay:10.37,2013-02-28 03:05:00,
2013-02-27 22:10:00,45.0,26.9,29.52,South,180,0.0,0.0,49,0.00,CLR,,0.46,WeatherDisplay:10.37,2013-02-28 03:10:00,
2013-02-27 22:15:00,45.0,26.9,29.51,South,180,0.0,0.0,49,0.00,CLR,,0.46,WeatherDisplay:10.37,2013-02-28 03:15:00,
2013-02-27 22:20:00,44.8,26.8,29.51,South,180,0.0,0.0,49,0.00,CLR,,0.46,WeatherDisplay:10.37,2013-02-28 03:20:00,
2013-02-27 22:25:00,44.8,26.8,29.51,South,180,0.0,0.0,49,0.00,CLR,,0.46,WeatherDisplay:10.37,2013-02-28 03:25:00,
2013-02-27 22:30:00,44.6,26.6,29.51,South,180,0.0,0.0,49,0.00,CLR,,0.46,WeatherDisplay:10.37,2013-02-28 03:30:00,
2013-02-27 22:35:00,44.4,26.4,29.51,South,180,0.0,0.0,49,0.00,CLR,,0.46,WeatherDisplay:10.37,2013-02-28 03:35:00,
2013-02-27 22:40:00,44.2,26.3,29.51,South,180,0.0,0.0,49,0.00,CLR,,0.46,WeatherDisplay:10.37,2013-02-28 03:40:00,
2013-02-27 22:45:00,44.2,26.3,29.51,South,180,0.0,0.0,49,0.00,CLR,,0.46,WeatherDisplay:10.37,2013-02-28 03:45:00,
2013-02-27 22:50:00,44.2,26.8,29.51,South,180,0.0,0.0,50,0.00,CLR,,0.46,WeatherDisplay:10.37,2013-02-28 03:50:00,
2013-02-27 22:56:00,44.2,26.8,29.51,South,180,0.0,0.0,50,0.00,CLR,,0.46,WeatherDisplay:10.37,2013-02-28 03:56:00,
2013-02-27 23:01:00,44.2,26.8,29.51,South,180,0.0,0.0,50,0.00,CLR,,0.46,WeatherDisplay:10.37,2013-02-28 04:01:00,
2013-02-27 23:06:00,44.1,26.6,29.50,South,180,0.0,0.0,50,0.00,CLR,,0.46,WeatherDisplay:10.37,2013-02-28 04:06:00,
2013-02-27 23:11:00,44.1,26.6,29.50,South,180,0.0,0.0,50,0.00,CLR,,0.46,WeatherDisplay:10.37,2013-02-28 04:11:00,
2013-02-27 23:16:00,44.1,27.1,29.50,South,180,0.0,0.0,51,0.00,CLR,,0.46,WeatherDisplay:10.37,2013-02-28 04:16:00,
2013-02-27 23:21:00,43.9,26.9,29.50,South,180,0.0,0.0,51,0.00,CLR,,0.46,WeatherDisplay:10.37,2013-02-28 04:21:00,
2013-02-27 23:26:00,44.1,27.1,29.50,South,180,0.0,0.0,51,0.00,CLR,,0.46,WeatherDisplay:10.37,2013-02-28 04:26:00,
2013-02-27 23:31:00,44.1,27.1,29.50,South,180,0.0,0.0,51,0.00,CLR,,0.46,WeatherDisplay:10.37,2013-02-28 04:31:00,
2013-02-27 23:36:00,44.1,27.1,29.50,South,180,0.0,0.0,51,0.00,CLR,,0.46,WeatherDisplay:10.37,2013-02-28 04:36:00,
2013-02-27 23:41:00,44.2,27.2,29.49,SW,225,0.0,0.0,51,0.00,CLR,,0.46,WeatherDisplay:10.37,2013-02-28 04:41:00,
2013-02-27 23:46:00,44.2,27.2,29.49,SW,225,0.0,0.0,51,0.00,CLR,,0.46,WeatherDisplay:10.37,2013-02-28 04:46:00,
2013-02-27 23:51:00,44.1,27.1,29.49,SW,225,0.0,0.0,51,0.00,CLR,,0.46,WeatherDisplay:10.37,2013-02-28 04:51:00,
2013-02-27 23:56:00,43.9,26.9,29.49,SW,225,0.0,0.0,51,0.00,CLR,,0.46,WeatherDisplay:10.37,2013-02-28 04:56:00,